User: anonymous   Login
Location: Plum
(40.5000°N, 79.7500°W)
Time: 20:04:23
(UTC-04:00)
Language:

MOZ.5/SAFIR/RUBIN 5/SL-8 - Orbit

View from above orbital plane
View from above orbital plane
View from above satellite
View from above satellite

Ground track
Ground track

The orbit data is extracted from the following two-line orbital elements,

1 28898U 05043G   15188.11957185  .00000262  00000-0  63699-4 0  9994
2 28898 097.8477 001.6583 0018510 264.1530 095.7561 14.59927312516073
Epoch (UTC): 07 July 2015 02:52:11
Eccentricity: 0.0018510
inclination: 97.8477°
perigee height: 680 km
apogee height: 706 km
right ascension of ascending node: 1.6583°
argument of perigee: 264.1530°
revolutions per day: 14.59927312
mean anomaly at epoch: 95.7561°
orbit number at epoch: 51607

The dashed part of the orbit path shows where the satellite is in the earth's shadow,  

DLR